CAPE
225 4 16 22 81 3 3 6 33 25 73 165 228 316 467 573 624 840 1098 981 1379 1761
357 302 104 180 246 20 112 1 3 52 127 196 279 462 568 494 540 571 915 979 1171 1398
78 159 126 125 172 197 231 211 225 211 216 258 330 330 456 584 522 733 757 716 886 1012
83 54 11 24 158 251 274 358 354 476 519 513 533 514 524 490 277 391 476 488 678 804
63 103 45 52 125 190 224 369 431 525 784 728 695 699 741 628 537 508 408 421 608 756
95 80 87 101 62 129 288 409 541 726 716 632 731 701 682 729 492 371 282 200 232 59
235 169 99 103 206 257 466 621 788 797 819 864 857 793 784 654 475 289 136 52 34 12
263 360 169 415 552 566 516 481 669 663 756 744 721 690 732 400 432 263 148 61 5 6
449 646 773 565 624 599 475 430 576 641 636 804 786 0 0 50 339 165 191 145 7 6
736 777 775 361 535 578 632 669 567 584 652 826 873 72 0 4 275 203 127 170 175 9
728 808 772 490 414 553 705 635 577 604 730 765 707 81 1 0 341 431 241 181 201 92
718 795 837 729 679 735 671 427 402 582 784 807 820 85 6 0 442 697 381 334 262 169
622 887 801 769 716 670 635 476 504 564 759 811 720 384 201 0 827 767 999 358 535 111
918 1295 1237 828 786 723 866 799 805 930 924 768 338 703 208 0 423 1090 732 690 223 376
CIN
-89 -20 -113 -116 -71 0 0 0 -64 -3 -9 -1 0 0 0 0 0 0 0 0 0 0
-38 -31 -85 -38 -20 -108 -65 0 -1 -78 -5 0 0 0 0 0 0 0 0 0 0 0
-167 -75 -66 -46 -27 -21 -19 -26 -18 -5 -2 0 0 0 0 0 0 0 0 0 0 0
-132 -110 -100 -115 -30 -9 -13 -3 -2 0 0 0 0 0 0 0 0 0 0 0 0 0
-111 -51 -81 -83 -48 -21 -14 0 0 0 0 0 0 0 0 0 0 0 0 0 0 0
-52 -53 -50 -57 -82 -43 -2 0 0 0 0 0 0 0 0 0 0 0 -1 -5 -8 -7
-10 -8 -16 -31 -11 -3 0 0 0 0 0 0 0 0 0 0 0 -1 -4 -12 -20 -9
-9 -4 -7 -2 0 0 0 0 0 0 0 0 0 0 0 -4 0 -3 -1 -23 -4 -15
-6 0 0 0 0 0 0 0 0 0 0 0 0 -1 0 -78 0 -8 -3 0 -1 -17
0 0 0 0 0 0 0 0 0 0 0 0 0 -114 0 -86 0 -5 -13 0 0 -76
0 0 0 0 0 0 0 0 0 0 0 0 -1 -95 -69 0 -4 -4 -8 -6 0 -7
0 0 0 0 0 0 0 -2 -1 0 0 0 0 -87 -39 0 0 -1 -5 -1 -9 -2
0 0 -1 0 0 0 0 0 0 0 0 0 0 -10 -67 0 -1 0 0 -1 -2 -51
-1 0 -2 -3 0 0 0 -2 0 0 0 0 -5 -5 -78 0 -14 0 -5 -5 -1 -14
Wind_Speed
4 5 5 3 5 5 5 4 4 5 6 7 8 8 8 9 10 11 10 15 12 10
4 5 5 5 5 4 4 4 4 6 6 6 7 8 8 9 9 10 11 13 14 12
4 4 4 5 6 6 6 6 8 8 8 7 7 6 7 8 9 10 11 12 15 14
5 4 4 5 6 6 7 7 8 9 9 9 10 8 8 9 10 12 13 15 15 17
5 5 5 6 8 7 8 8 9 10 10 11 11 9 9 9 11 13 15 17 17 18
6 6 6 7 7 8 9 10 11 11 11 11 10 10 9 10 11 12 13 15 15 16
6 6 6 6 7 8 9 10 11 10 11 10 9 9 9 7 9 9 11 14 13 12
7 6 7 7 8 9 10 9 10 9 10 10 9 6 4 6 6 8 10 12 11 12
7 8 9 9 9 9 10 9 9 9 9 9 8 8 5 6 6 7 8 11 10 12
8 8 8 8 9 9 9 9 10 9 9 9 9 11 8 7 6 6 6 8 8 9
9 9 8 8 9 9 9 8 8 9 8 9 8 13 11 10 10 7 7 7 9 8
9 8 9 9 9 8 8 8 9 8 8 9 10 11 11 10 12 8 10 9 7 9
8 8 9 9 8 7 7 8 6 7 8 9 10 4 12 12 8 12 8 12 10 8
7 9 9 9 8 8 8 8 8 9 8 10 5 6 5 8 11 8 10 8 11 8
Wind_Direction
240 275 282 286 319 305 319 316 328 302 307 312 311 305 298 285 293 292 278 276 269 267
251 258 316 291 282 284 283 302 286 305 303 303 315 311 309 285 298 295 282 280 274 270
266 244 275 282 283 285 286 281 293 296 290 293 299 316 319 318 313 308 302 299 298 283
253 259 268 281 279 275 275 277 286 296 299 293 292 296 313 314 314 324 315 306 295 286
245 252 267 276 282 283 275 278 290 298 293 288 285 284 291 300 315 316 316 313 308 296
243 246 264 275 281 288 289 287 289 289 285 289 289 294 287 303 320 326 328 321 314 305
240 253 269 281 285 290 294 294 291 292 282 284 289 292 283 303 318 335 329 341 311 309
245 260 265 276 286 292 290 294 295 296 290 285 285 285 279 298 311 322 322 343 328 338
257 263 265 273 281 289 290 294 295 300 298 299 290 131 208 275 312 317 317 323 327 333
250 256 264 281 284 286 298 299 297 302 303 292 297 184 216 237 279 315 326 319 319 338
250 256 259 266 271 280 297 299 290 288 294 294 295 182 211 232 262 289 299 307 322 326
248 256 260 263 269 291 292 288 284 276 280 287 301 198 217 237 270 278 299 295 293 303
257 258 271 270 277 289 271 265 289 292 289 291 291 236 220 227 259 278 291 299 302 258
254 253 248 268 271 265 258 292 289 300 297 286 325 320 328 243 253 268 294 297 305 316